SQ9IWE-13 Weather Reports


Display with metric or nautical units.
time (UTC)temp
F
wind
direction
speed
MPH
gust
MPH
rain 1hr
in
rain 24hr
in
rain mn
in
humidity
%
barometer
mb
20260903233001 64 0 0.0 0.0 0.00 0.00 0.00 71 1016.6
20260903232000 64 0 0.0 0.0 0.00 0.00 0.00 71 1016.6
20260903231000 64 0 0.0 0.0 0.00 0.00 0.00 72 1016.6
20260903230000 64 0 0.0 0.0 0.00 0.00 0.00 73 1016.7
20260903224000 63 0 0.0 0.0 0.00 0.00 0.00 74 1016.7
20260903223000 63 0 0.0 0.0 0.00 0.00 0.00 74 1016.7
20260903222000 63 0 0.0 0.0 0.00 0.00 0.00 74 1016.8
20260903221000 62 0 0.0 0.0 0.00 0.00 0.00 75 1016.8
20260903220000 62 0 0.0 0.0 0.00 0.00 0.00 75 1016.8
20260903215000 62 0 0.0 0.0 0.00 0.00 0.00 76 1017.0
20260903214000 62 0 0.0 0.0 0.00 0.00 0.00 76 1016.8
20260903213000 62 0 0.0 0.0 0.00 0.00 0.00 77 1016.9
20260903212001 61 0 0.0 0.0 0.00 0.00 0.00 79 1017.1
20260903211001 61 0 0.0 0.0 0.00 0.00 0.00 80 1017.0
20260903210001 61 0 0.0 0.0 0.00 0.00 0.00 80 1016.9
20260903205001 61 0 0.0 0.0 0.00 0.00 0.00 80 1016.9
20260903204001 61 0 0.0 0.0 0.00 0.00 0.00 79 1017.0
20260903203001 62 0 0.0 0.0 0.00 0.00 0.00 79 1016.9
20260903202001 62 0 0.0 0.0 0.00 0.00 0.00 77 1017.1
20260903201001 62 0 0.0 0.0 0.00 0.00 0.00 77 1017.1
20260903200001 62 0 0.0 0.0 0.00 0.00 0.00 76 1017.0
20260903195001 63 0 0.0 0.0 0.00 0.00 0.00 76 1017.1
20260903194001 63 0 0.0 0.0 0.00 0.00 0.00 75 1017.1
20260903193001 64 0 0.0 0.0 0.00 0.00 0.00 73 1017.2
20260903192001 64 0 0.0 0.0 0.00 0.00 0.00 71 1017.2
20260903191001 64 0 0.0 0.0 0.00 0.00 0.00 70 1017.3
20260903190001 65 0 0.0 0.0 0.00 0.00 0.00 68 1017.3
20260903185001 66 0 0.0 0.0 0.00 0.00 0.00 68 1017.4
20260903184001 66 0 0.0 0.0 0.00 0.00 0.00 68 1017.4
20260903183001 66 0 0.0 0.0 0.00 0.00 0.00 68 1017.4
20260903182001 66 0 0.0 0.0 0.00 0.00 0.00 66 1017.4
20260903181001 66 0 0.0 0.0 0.00 0.00 0.00 67 1017.4
20260903180001 67 0 0.0 0.0 0.00 0.00 0.00 66 1017.4
20260903175001 67 0 0.0 0.0 0.00 0.00 0.00 66 1017.4
20260903174001 68 0 0.0 0.0 0.00 0.00 0.00 65 1017.4
20260903173001 68 0 0.0 0.0 0.00 0.00 0.00 64 1017.2
20260903172001 69 0 0.0 0.0 0.00 0.00 0.00 63 1017.2
20260903171001 69 0 0.0 0.0 0.00 0.00 0.00 63 1017.2
20260903170001 70 0 0.0 0.0 0.00 0.00 0.00 62 1017.2
20260903165000 70 0 0.0 0.0 0.00 0.00 0.00 62 1017.2
20260903164000 71 0 0.0 0.0 0.00 0.00 0.00 61 1017.1
20260903163000 71 0 0.0 0.0 0.00 0.00 0.00 61 1017.1
20260903162000 72 0 0.0 0.0 0.00 0.00 0.00 60 1017.1
20260903161000 72 0 0.0 0.0 0.00 0.00 0.00 60 1017.1
20260903155000 73 0 0.0 0.0 0.00 0.00 0.00 58 1017.2
20260903154000 73 0 0.0 0.0 0.00 0.00 0.00 57 1017.3
20260903153000 74 0 0.0 0.0 0.00 0.00 0.00 57 1017.1
20260903152000 74 0 0.0 0.0 0.00 0.00 0.00 56 1017.2
20260903151000 73 0 0.0 0.0 0.00 0.00 0.00 57 1017.3
20260903145001 74 0 0.0 0.0 0.00 0.00 0.00 55 1017.4
20260903144001 75 0 0.0 0.0 0.00 0.00 0.00 54 1017.4
20260903143001 75 0 0.0 0.0 0.00 0.00 0.00 52 1017.2
20260903142001 75 0 0.0 0.0 0.00 0.00 0.00 53 1017.5
20260903141001 75 0 0.0 0.0 0.00 0.00 0.00 52 1017.5
20260903140001 75 0 0.0 0.0 0.00 0.00 0.00 52 1017.5
20260903135001 76 0 0.0 0.0 0.00 0.00 0.00 54 1017.4
20260903134001 76 0 0.0 0.0 0.00 0.00 0.00 53 1017.5
20260903133001 77 0 0.0 0.0 0.00 0.00 0.00 54 1017.5
20260903132001 76 0 0.0 0.0 0.00 0.00 0.00 53 1017.5
20260903131001 77 0 0.0 0.0 0.00 0.00 0.00 54 1017.7
20260903130001 75 0 0.0 0.0 0.00 0.00 0.00 56 1017.7
20260903125001 76 0 0.0 0.0 0.00 0.00 0.00 55 1017.8
20260903124001 77 0 0.0 0.0 0.00 0.00 0.00 54 1017.8
20260903123001 77 0 0.0 0.0 0.00 0.00 0.00 54 1017.9
20260903122001 78 0 0.0 0.0 0.00 0.00 0.00 54 1017.9
20260903121001 76 0 0.0 0.0 0.00 0.00 0.00 56 1018.0
20260903120001 75 0 0.0 0.0 0.00 0.00 0.00 56 1018.2
20260903115001 76 0 0.0 0.0 0.00 0.00 0.00 55 1018.1
20260903113001 78 0 0.0 0.0 0.00 0.00 0.00 53 1018.2
20260903112001 78 0 0.0 0.0 0.00 0.00 0.00 54 1018.2
20260903111001 78 0 0.0 0.0 0.00 0.00 0.00 53 1018.2
20260903110001 81 0 0.0 0.0 0.00 0.00 0.00 51 1018.4
20260903105001 82 0 0.0 0.0 0.00 0.00 0.00 51 1018.4
20260903104001 79 0 0.0 0.0 0.00 0.00 0.00 54 1018.4
20260903103001 79 0 0.0 0.0 0.00 0.00 0.00 51 1018.4
20260903102001 81 0 0.0 0.0 0.00 0.00 0.00 50 1018.5
20260903101001 83 0 0.0 0.0 0.00 0.00 0.00 47 1018.7
20260903100001 84 0 0.0 0.0 0.00 0.00 0.00 48 1018.8
20260903095000 85 0 0.0 0.0 0.00 0.00 0.00 46 1018.9
20260903094000 82 0 0.0 0.0 0.00 0.00 0.00 50 1019.1
20260903093000 85 0 0.0 0.0 0.00 0.00 0.00 47 1019.1
20260903092000 80 0 0.0 0.0 0.00 0.00 0.00 51 1019.2
20260903091000 85 0 0.0 0.0 0.00 0.00 0.00 47 1019.3
20260903090000 86 0 0.0 0.0 0.00 0.00 0.00 47 1019.5
20260903085000 84 0 0.0 0.0 0.00 0.00 0.00 47 1019.4
20260903084000 81 0 0.0 0.0 0.00 0.00 0.00 50 1019.4
20260903083000 82 0 0.0 0.0 0.00 0.00 0.00 49 1019.5
20260903082000 81 0 0.0 0.0 0.00 0.00 0.00 50 1019.5
20260903081001 80 0 0.0 0.0 0.00 0.00 0.00 54 1019.6
20260903080001 79 0 0.0 0.0 0.00 0.00 0.00 53 1019.5
20260903075001 76 0 0.0 0.0 0.00 0.00 0.00 57 1019.5
20260903074001 76 0 0.0 0.0 0.00 0.00 0.00 60 1019.5
20260903073001 75 0 0.0 0.0 0.00 0.00 0.00 60 1019.4
20260903072001 75 0 0.0 0.0 0.00 0.00 0.00 60 1019.5
20260903071001 73 0 0.0 0.0 0.00 0.00 0.00 65 1019.4
20260903070001 68 0 0.0 0.0 0.00 0.00 0.00 71 1019.2
20260903064001 65 0 0.0 0.0 0.00 0.00 0.00 75 1019.3
20260903063001 64 0 0.0 0.0 0.00 0.00 0.00 75 1019.3
20260903061001 63 0 0.0 0.0 0.00 0.00 0.00 79 1019.6
20260903060001 62 0 0.0 0.0 0.00 0.00 0.00 81 1019.5
20260903055001 61 0 0.0 0.0 0.00 0.00 0.00 82 1019.5
20260903054001 60 0 0.0 0.0 0.00 0.00 0.00 85 1019.4
20260903053001 59 0 0.0 0.0 0.00 0.00 0.00 86 1019.4
20260903051001 59 0 0.0 0.0 0.00 0.00 0.00 86 1019.2
20260903050001 59 0 0.0 0.0 0.00 0.00 0.00 87 1019.2
20260903045001 59 0 0.0 0.0 0.00 0.00 0.00 89 1019.0
20260903044001 58 0 0.0 0.0 0.00 0.00 0.00 90 1019.0
20260903043001 58 0 0.0 0.0 0.00 0.00 0.00 91 1019.0
20260903042001 57 0 0.0 0.0 0.00 0.00 0.00 90 1019.0
20260903041001 58 0 0.0 0.0 0.00 0.00 0.00 90 1019.1
20260903040001 58 0 0.0 0.0 0.00 0.00 0.00 88 1019.0
20260903035000 59 0 0.0 0.0 0.00 0.00 0.00 88 1019.0
20260903034001 59 0 0.0 0.0 0.00 0.00 0.00 87 1018.9
20260903033000 59 0 0.0 0.0 0.00 0.00 0.00 86 1019.1
20260903032000 59 0 0.0 0.0 0.00 0.00 0.00 85 1019.1
20260903031000 60 0 0.0 0.0 0.00 0.00 0.00 85 1019.1
20260903025000 59 0 0.0 0.0 0.00 0.00 0.00 87 1019.2
20260903024000 59 0 0.0 0.0 0.00 0.00 0.00 87 1019.2
20260903023000 59 0 0.0 0.0 0.00 0.00 0.00 87 1019.2
20260903022000 59 0 0.0 0.0 0.00 0.00 0.00 88 1019.0
20260903021000 59 0 0.0 0.0 0.00 0.00 0.00 89 1019.2
20260903020001 59 0 0.0 0.0 0.00 0.00 0.00 90 1019.2
20260903015001 59 0 0.0 0.0 0.00 0.00 0.00 90 1019.0
20260903014001 60 0 0.0 0.0 0.00 0.00 0.00 89 1018.8
20260903013001 60 0 0.0 0.0 0.00 0.00 0.00 89 1018.9
20260903012001 60 0 0.0 0.0 0.00 0.00 0.00 89 1018.8
20260903011001 60 0 0.0 0.0 0.00 0.00 0.00 89 1018.8
20260903010001 60 0 0.0 0.0 0.00 0.00 0.00 89 1018.8
20260903005001 60 0 0.0 0.0 0.00 0.00 0.00 88 1019.0
20260903004001 60 0 0.0 0.0 0.00 0.00 0.00 88 1019.0
20260903003001 60 0 0.0 0.0 0.00 0.00 0.00 87 1019.1
20260903002001 60 0 0.0 0.0 0.00 0.00 0.00 87 1019.0
20260903001001 60 0 0.0 0.0 0.00 0.00 0.00 87 1019.1
20260903000001 60 0 0.0 0.0 0.00 0.00 0.00 87 1019.2